Location: ??
(34.7707°N, 135.6540°E)
Time: 21:11:46
(UTC+00:00)

Tiangong - Pass Details

Date: 26 September 2021
Orbit: 382 x 385 km, 41.5° (Epoch: 19 October)

Event Time Altitude Azimuth Distance (km) Brightness Sun altitude
Exits shadow 19:22:01 69° 199° (SSW) 409 1.0 -18.6°
Maximum altitude 19:22:16 75° 153° (SSE) 396 1.0 -18.5°
Drops below altitude 10° 19:25:24 10° 67° (ENE) 1,393 5.1 -17.9°
Sets 19:27:29 0° 66° (ENE) 2,248 6.5 -17.5°
